星链-31433 (STARLINK-31433 )

导读

STARLINK-31433是美国星链计划的卫星,于2024年3月16日发射升空,归属于SpaceX公司的星链星座组网项目。星链计划旨在构建全球卫星互联网星座,为全球提供低延迟、高速率的互联网覆盖服务,该卫星的成功发射进一步扩充了星链星座的在轨规模,推进了全球卫星互联网组网进程。

基本信息
目录编号:
59243
目录名称:
STARLINK-31433
国际标识:
2024-049N
轨道中心:
EARTH
卫星名称:
星链-31433
卫星全名:
星链-31433 (STARLINK-31433 )
卫星状态:
在轨 (已飞行902 天)
发射日期:
2024-03-16 UTC
国别 :
美国 (US)
星等 :
--
轨道信息
数据来源 国际轨道数据 AOE轨道数据
星历时间 2026-09-03T23:34:55+0800
23小时前
查看轨道信息
2026-09-04T00:00:00+0800
23小时前
查看轨道信息
半长轴 6861.198km 6861.172km
偏心率 0.0001161 0.0001159
轨道倾角 43.003° 43.001°
近地点辐角 267.220° 261.329°
升交点赤经 218.434° 218.339°
平近点角 92.852° 194.641°
近地点 482.264km 482.239km
远地点 483.858km 483.831km
周期 94.267分钟 94.266分钟
每日圈数 15.275763 15.27585
详细信息
固有亮度:
5
最大亮度:
0.3
卫星平台:
Starlink v2.0 mini
覆盖范围:
全球
运营商:
太空探索技术公司
运营商所在国:
美国
制造商(研发单位):
太空探索技术公司
制造商所在国:
美国
使用方式:
暂无
卫星简介
星链(Starlink)计划是由太空探索技术公司(SpaceX)提出的一个巨型低轨卫星互联网星座项目,计划在2019年至2024年间在太空搭建由约1.2万颗卫星组成的“星链”网络,其中1584颗将部署在地球上空550千米处的近地轨道,并从2020年开始工作。该卫星仍在工作。
2D轨道图
3D轨道图
轨道高度分析图
轨道倾角分析图
轨道综合分析图
查看轨道综合分析图
交会数据列表
事件ID 空间交会对象 最接近时刻(TCA) 交会距离 交会风险概率(CRP) 交会风险指数(CRI) 操作
CDM_260829-145205-924306-363721
2026-08-29T
14:52:01+0000
1.098 km
极远距离
1.459189E-5 中风险 0.58
CDM_260829-131705-924306-363721
2026-08-29T
13:17:52+0000
2.195 km
极远距离
1.769006E-6 低风险 0.4